| time (UTC) | temp C | wind direction | speed KPH | gust KPH | rain 1hr cm | rain 24hr cm | rain mn cm | humidity % | barometer mb |
| 20260504050523 | 18 | 312 | 6.4 | 9.7 | 0.00 | 0.36 | 0.36 | 67 | 1014.0 |
| 20260504050023 | 18 | 319 | 6.4 | 11.3 | 0.00 | 0.36 | 0.36 | 71 | 1014.0 |
| 20260504045523 | 18 | 325 | 8.0 | 12.9 | 0.00 | 0.36 | 0.36 | 68 | 1014.0 |
| 20260504045023 | 18 | 318 | 6.4 | 16.1 | 0.00 | 0.36 | 0.36 | 70 | 1014.0 |
| 20260504044526 | 18 | 318 | 4.8 | 14.5 | 0.00 | 0.36 | 0.36 | 75 | 1014.0 |
| 20260504044023 | 18 | 338 | 3.2 | 11.3 | 0.00 | 0.36 | 0.36 | 71 | 1014.0 |
| 20260504043523 | 18 | 345 | 3.2 | 9.7 | 0.00 | 0.36 | 0.36 | 78 | 1014.0 |
| 20260504043025 | 17 | 334 | 6.4 | 9.7 | 0.00 | 0.36 | 0.36 | 79 | 1014.0 |
| 20260504042523 | 18 | 323 | 8.0 | 16.1 | 0.00 | 0.36 | 0.36 | 75 | 1014.0 |
| 20260504042022 | 17 | 324 | 8.0 | 16.1 | 0.00 | 0.36 | 0.36 | 78 | 1014.0 |
| 20260504041523 | 17 | 320 | 8.0 | 14.5 | 0.00 | 0.36 | 0.36 | 79 | 1014.0 |
| 20260504041138 | 17 | 326 | 6.4 | 16.1 | 0.00 | 0.36 | 0.36 | 80 | 1014.0 |
| 20260504040523 | 16 | 322 | 8.0 | 12.9 | 0.00 | 0.36 | 0.36 | 84 | 1014.0 |
| 20260504040023 | 17 | 313 | 9.7 | 19.3 | 0.00 | 0.36 | 0.36 | 82 | 1014.0 |
| 20260504035637 | 17 | 318 | 9.7 | 19.3 | 0.00 | 0.36 | 0.36 | 80 | 1014.0 |
| 20260504035022 | 17 | 339 | 8.0 | 17.7 | 0.00 | 0.36 | 0.36 | 86 | 1014.0 |
| 20260504034523 | 17 | 358 | 6.4 | 17.7 | 0.00 | 0.36 | 0.36 | 84 | 1014.0 |
| 20260504034023 | 18 | 328 | 4.8 | 12.9 | 0.00 | 0.36 | 0.36 | 85 | 1014.0 |
| 20260504033523 | 18 | 311 | 6.4 | 9.7 | 0.00 | 0.36 | 0.36 | 83 | 1014.0 |
| 20260504033023 | 18 | 338 | 6.4 | 14.5 | 0.00 | 0.36 | 0.36 | 82 | 1014.0 |
| 20260504032522 | 18 | 0 | 6.4 | 9.7 | 0.00 | 0.36 | 0.36 | 84 | 1014.0 |
| 20260504032023 | 18 | 5 | 9.7 | 16.1 | 0.00 | 0.36 | 0.36 | 86 | 1014.0 |
| 20260504031523 | 18 | 334 | 8.0 | 17.7 | 0.00 | 0.36 | 0.36 | 86 | 1014.0 |
| 20260504031022 | 18 | 304 | 8.0 | 19.3 | 0.00 | 0.36 | 0.36 | 86 | 1014.0 |
| 20260504030522 | 18 | 340 | 6.4 | 19.3 | 0.00 | 0.36 | 0.36 | 87 | 1014.0 |
| 20260504030023 | 18 | 12 | 4.8 | 9.7 | 0.00 | 0.36 | 0.36 | 94 | 1014.0 |
| 20260504025523 | 17 | 15 | 8.0 | 12.9 | 0.00 | 0.36 | 0.36 | 95 | 1014.0 |
| 20260504025023 | 17 | 16 | 9.7 | 16.1 | 0.00 | 0.36 | 0.36 | 95 | 1014.0 |
| 20260504024638 | 16 | 3 | 9.7 | 16.1 | 0.00 | 0.36 | 0.36 | 96 | 1014.0 |
| 20260504024022 | 16 | 7 | 9.7 | 17.7 | 0.00 | 0.36 | 0.36 | 97 | 1014.0 |
| 20260504023523 | 16 | 20 | 9.7 | 19.3 | 0.00 | 0.36 | 0.36 | 96 | 1015.0 |
| 20260504023023 | 17 | 14 | 8.0 | 14.5 | 0.00 | 0.36 | 0.36 | 96 | 1015.0 |
| 20260504022522 | 16 | 5 | 8.0 | 14.5 | 0.00 | 0.36 | 0.36 | 97 | 1015.0 |
| 20260504022137 | 16 | 5 | 6.4 | 19.3 | 0.00 | 0.36 | 0.36 | 99 | 1015.0 |
| 20260504021523 | 16 | 350 | 3.2 | 16.1 | 0.00 | 0.36 | 0.36 | 99 | 1015.0 |
| 20260504021023 | 16 | 348 | 3.2 | 6.4 | 0.00 | 0.36 | 0.36 | 100 | 1015.0 |
| 20260504020523 | 16 | 14 | 3.2 | 11.3 | 0.00 | 0.36 | 0.36 | 100 | 1015.0 |
| 20260504020023 | 16 | 350 | 1.6 | 6.4 | 0.00 | 0.36 | 0.36 | 100 | 1015.0 |
| 20260504015522 | 15 | 304 | 3.2 | 6.4 | 0.00 | 0.36 | 0.36 | 100 | 1015.0 |
| 20260504015022 | 15 | 301 | 4.8 | 8.0 | 0.00 | 0.36 | 0.36 | 100 | 1015.0 |
| 20260504014523 | 15 | 318 | 6.4 | 8.0 | 0.00 | 0.36 | 0.36 | 100 | 1015.0 |
| 20260504014025 | 16 | 321 | 4.8 | 12.9 | 0.00 | 0.36 | 0.36 | 100 | 1015.0 |
| 20260504013522 | 16 | 326 | 3.2 | 11.3 | 0.00 | 0.36 | 0.36 | 100 | 1015.0 |
| 20260504013023 | 16 | 334 | 4.8 | 9.7 | 0.00 | 0.36 | 0.36 | 100 | 1015.0 |
| 20260504012522 | 16 | 327 | 8.0 | 12.9 | 0.00 | 0.36 | 0.36 | 100 | 1015.0 |
| 20260504012023 | 15 | 319 | 9.7 | 16.1 | 0.00 | 0.36 | 0.36 | 100 | 1015.0 |
| 20260504011523 | 16 | 338 | 8.0 | 16.1 | 0.00 | 0.36 | 0.36 | 100 | 1015.0 |
| 20260504011022 | 16 | 358 | 6.4 | 11.3 | 0.00 | 0.36 | 0.36 | 100 | 1015.0 |
| 20260504010523 | 16 | 346 | 6.4 | 16.1 | 0.00 | 0.36 | 0.36 | 100 | 1015.0 |
| 20260504010023 | 16 | 333 | 6.4 | 20.9 | 0.00 | 0.36 | 0.36 | 100 | 1015.0 |
| 20260504005638 | 15 | 341 | 6.4 | 14.5 | 0.00 | 0.36 | 0.36 | 100 | 1015.0 |
| 20260504005138 | 15 | 359 | 6.4 | 11.3 | 0.00 | 0.36 | 0.36 | 100 | 1015.0 |
| 20260504004638 | 16 | 8 | 6.4 | 14.5 | 0.00 | 0.36 | 0.36 | 100 | 1015.0 |
| 20260504004023 | 16 | 13 | 4.8 | 16.1 | 0.00 | 0.36 | 0.36 | 100 | 1015.0 |
| 20260504003638 | 16 | 8 | 6.4 | 11.3 | 0.00 | 0.36 | 0.36 | 100 | 1016.0 |
| 20260504003138 | 15 | 348 | 4.8 | 14.5 | 0.00 | 0.36 | 0.36 | 100 | 1016.0 |
| 20260504002523 | 15 | 324 | 4.8 | 11.3 | 0.00 | 0.36 | 0.36 | 100 | 1016.0 |
| 20260504002022 | 13 | 317 | 3.2 | 9.7 | 0.00 | 0.36 | 0.36 | 100 | 1016.0 |
| 20260504001523 | 14 | 316 | 1.6 | 6.4 | 0.00 | 0.36 | 0.36 | 100 | 1016.0 |
| 20260504001022 | 14 | 321 | 1.6 | 4.8 | 0.00 | 0.36 | 0.36 | 100 | 1016.0 |
| 20260504000523 | 13 | 329 | 3.2 | 9.7 | 0.00 | 0.36 | 0.36 | 100 | 1016.0 |
| 20260504000023 | 13 | 332 | 4.8 | 9.7 | 0.00 | 0.36 | 0.36 | 100 | 1016.0 |
| 20260503235523 | 13 | 352 | 6.4 | 11.3 | 0.00 | 0.36 | 0.36 | 100 | 1016.0 |
| 20260503235023 | 13 | 13 | 6.4 | 12.9 | 0.00 | 0.36 | 0.36 | 100 | 1015.0 |
| 20260503234523 | 13 | 23 | 6.4 | 11.3 | 0.00 | 0.36 | 0.36 | 100 | 1015.0 |
| 20260503234137 | 12 | 22 | 6.4 | 12.9 | 0.00 | 0.36 | 0.36 | 100 | 1015.0 |
| 20260503233638 | 12 | 16 | 6.4 | 11.3 | 0.00 | 0.36 | 0.36 | 100 | 1016.0 |
| 20260503233023 | 12 | 24 | 8.0 | 12.9 | 0.00 | 0.36 | 0.36 | 100 | 1016.0 |
| 20260503232523 | 12 | 33 | 8.0 | 12.9 | 0.00 | 0.36 | 0.36 | 100 | 1016.0 |
| 20260503232023 | 12 | 34 | 6.4 | 11.3 | 0.00 | 0.36 | 0.36 | 100 | 1016.0 |
| 20260503231522 | 12 | 31 | 4.8 | 9.7 | 0.00 | 0.36 | 0.36 | 100 | 1016.0 |
| 20260503231022 | 12 | 21 | 4.8 | 9.7 | 0.00 | 0.36 | 0.36 | 100 | 1016.0 |
| 20260503230522 | 12 | 15 | 1.6 | 4.8 | 0.00 | 0.36 | 0.36 | 100 | 1016.0 |
| 20260503230138 | 12 | 4 | 1.6 | 6.4 | 0.00 | 0.36 | 0.36 | 100 | 1016.0 |
| 20260503225523 | 12 | 353 | 3.2 | 8.0 | 0.00 | 0.36 | 0.36 | 100 | 1016.0 |
| 20260503225023 | 12 | 356 | 3.2 | 8.0 | 0.00 | 0.36 | 0.36 | 100 | 1015.0 |
| 20260503224637 | 12 | 355 | 3.2 | 8.0 | 0.00 | 0.36 | 0.36 | 100 | 1015.0 |
| 20260503224022 | 11 | 352 | 4.8 | 9.7 | 0.00 | 0.36 | 0.36 | 100 | 1015.0 |
| 20260503223522 | 11 | 351 | 4.8 | 11.3 | 0.00 | 0.36 | 0.36 | 100 | 1015.0 |
| 20260503223023 | 11 | 340 | 3.2 | 8.0 | 0.00 | 0.36 | 0.36 | 100 | 1015.0 |
| 20260503222638 | 11 | 335 | 3.2 | 6.4 | 0.00 | 0.36 | 0.36 | 100 | 1015.0 |
| 20260503222023 | 11 | 344 | 3.2 | 8.0 | 0.00 | 0.36 | 0.36 | 100 | 1015.0 |
| 20260503221523 | 11 | 356 | 4.8 | 8.0 | 0.00 | 0.36 | 0.36 | 100 | 1015.0 |
| 20260503221137 | 11 | 357 | 6.4 | 11.3 | 0.00 | 0.36 | 0.36 | 100 | 1015.0 |
| 20260503220637 | 11 | 353 | 6.4 | 12.9 | 0.00 | 0.36 | 0.36 | 100 | 1015.0 |
| 20260503220023 | 11 | 354 | 6.4 | 11.3 | 0.00 | 0.36 | 0.36 | 100 | 1015.0 |
| 20260503215523 | 11 | 0 | 6.4 | 14.5 | 0.00 | 0.36 | 0.36 | 100 | 1015.0 |
| 20260503215023 | 11 | 4 | 6.4 | 16.1 | 0.00 | 0.36 | 0.36 | 100 | 1015.0 |
| 20260503214523 | 11 | 3 | 6.4 | 12.9 | 0.00 | 0.36 | 0.36 | 100 | 1015.0 |
| 20260503214137 | 10 | 1 | 6.4 | 11.3 | 0.00 | 0.36 | 0.36 | 100 | 1015.0 |
| 20260503213522 | 10 | 0 | 6.4 | 11.3 | 0.00 | 0.36 | 0.36 | 100 | 1015.0 |
| 20260503213023 | 10 | 357 | 4.8 | 8.0 | 0.00 | 0.36 | 0.36 | 100 | 1015.0 |
| 20260503212523 | 10 | 351 | 4.8 | 8.0 | 0.00 | 0.36 | 0.36 | 100 | 1015.0 |
| 20260503212023 | 10 | 353 | 4.8 | 8.0 | 0.00 | 0.36 | 0.36 | 100 | 1015.0 |
| 20260503211637 | 10 | 352 | 4.8 | 11.3 | 0.00 | 0.36 | 0.36 | 100 | 1015.0 |
| 20260503211138 | 10 | 354 | 4.8 | 11.3 | 0.00 | 0.36 | 0.36 | 100 | 1015.0 |
| 20260503210522 | 10 | 0 | 6.4 | 9.7 | 0.00 | 0.36 | 0.36 | 100 | 1015.0 |
| 20260503210024 | 10 | 358 | 6.4 | 12.9 | 0.00 | 0.36 | 0.36 | 100 | 1015.0 |
| 20260503205523 | 10 | 358 | 6.4 | 12.9 | 0.00 | 0.36 | 0.36 | 100 | 1015.0 |
| 20260503205022 | 10 | 0 | 4.8 | 14.5 | 0.00 | 0.36 | 0.36 | 100 | 1014.0 |
| 20260503204638 | 10 | 10 | 4.8 | 8.0 | 0.00 | 0.36 | 0.36 | 100 | 1014.0 |
| 20260503204023 | 9 | 20 | 4.8 | 6.4 | 0.00 | 0.36 | 0.36 | 100 | 1014.0 |
| 20260503203523 | 8 | 17 | 3.2 | 6.4 | 0.00 | 0.36 | 0.36 | 100 | 1014.0 |
| 20260503203023 | 8 | 4 | 3.2 | 6.4 | 0.00 | 0.36 | 0.36 | 100 | 1014.0 |
| 20260503202522 | 8 | 357 | 3.2 | 6.4 | 0.00 | 0.36 | 0.36 | 100 | 1014.0 |
| 20260503202137 | 8 | 356 | 3.2 | 4.8 | 0.00 | 0.36 | 0.36 | 100 | 1014.0 |
| 20260503201524 | 8 | 355 | 3.2 | 6.4 | 0.00 | 0.36 | 0.36 | 100 | 1014.0 |
| 20260503201023 | 8 | 7 | 3.2 | 6.4 | 0.00 | 0.36 | 0.36 | 100 | 1014.0 |
| 20260503200637 | 9 | 46 | 1.6 | 4.8 | 0.00 | 0.36 | 0.36 | 100 | 1014.0 |
| 20260503200023 | 9 | 48 | 3.2 | 4.8 | 0.00 | 0.36 | 0.36 | 100 | 1014.0 |
| 20260503195522 | 9 | 23 | 4.8 | 8.0 | 0.00 | 0.36 | 0.36 | 100 | 1014.0 |
| 20260503195023 | 9 | 15 | 3.2 | 6.4 | 0.00 | 0.36 | 0.36 | 100 | 1014.0 |
| 20260503194638 | 9 | 16 | 3.2 | 8.0 | 0.00 | 0.36 | 0.36 | 100 | 1014.0 |
| 20260503194023 | 10 | 21 | 1.6 | 3.2 | 0.00 | 0.36 | 0.36 | 100 | 1014.0 |
| 20260503193523 | 10 | 23 | 1.6 | 3.2 | 0.00 | 0.36 | 0.36 | 100 | 1014.0 |
| 20260503193023 | 10 | 28 | 0.0 | 1.6 | 0.00 | 0.36 | 0.36 | 100 | 1014.0 |
| 20260503192522 | 10 | 16 | 0.0 | 1.6 | 0.00 | 0.36 | 0.36 | 100 | 1014.0 |
| 20260503192137 | 10 | 351 | 0.0 | 3.2 | 0.00 | 0.36 | 0.36 | 100 | 1014.0 |
| 20260503191523 | 10 | 343 | 0.0 | 1.6 | 0.00 | 0.36 | 0.36 | 100 | 1014.0 |
| 20260503191023 | 10 | 350 | 0.0 | 1.6 | 0.00 | 0.36 | 0.36 | 100 | 1014.0 |
| 20260503190638 | 10 | 16 | 0.0 | 1.6 | 0.00 | 0.36 | 0.36 | 100 | 1014.0 |
| 20260503190023 | 10 | 30 | 0.0 | 3.2 | 0.00 | 0.36 | 0.36 | 100 | 1014.0 |
| 20260503185522 | 10 | 27 | 0.0 | 1.6 | 0.00 | 0.36 | 0.36 | 100 | 1014.0 |
| 20260503185022 | 10 | 48 | 0.0 | 1.6 | 0.00 | 0.36 | 0.36 | 100 | 1014.0 |
| 20260503184638 | 10 | 100 | 0.0 | 1.6 | 0.00 | 0.36 | 0.36 | 100 | 1014.0 |
| 20260503184138 | 10 | 135 | 0.0 | 1.6 | 0.00 | 0.36 | 0.36 | 100 | 1014.0 |
| 20260503183523 | 10 | 148 | 0.0 | 3.2 | 0.00 | 0.36 | 0.36 | 100 | 1014.0 |
| 20260503183022 | 10 | 145 | 0.0 | 3.2 | 0.00 | 0.36 | 0.36 | 100 | 1014.0 |
| 20260503182637 | 10 | 110 | 0.0 | 3.2 | 0.00 | 0.36 | 0.36 | 100 | 1014.0 |
| 20260503182022 | 10 | 27 | 0.0 | 3.2 | 0.00 | 0.36 | 0.36 | 100 | 1014.0 |
| 20260503181523 | 10 | 14 | 0.0 | 0.0 | 0.00 | 0.36 | 0.36 | 100 | 1014.0 |
| 20260503181023 | 10 | 356 | 0.0 | 0.0 | 0.00 | 0.36 | 0.36 | 100 | 1014.0 |
| 20260503180522 | 10 | 287 | 0.0 | 1.6 | 0.00 | 0.36 | 0.36 | 100 | 1014.0 |
| 20260503180023 | 10 | 266 | 0.0 | 6.4 | 0.00 | 0.36 | 0.36 | 100 | 1014.0 |
| 20260503175522 | 10 | 307 | 0.0 | 3.2 | 0.00 | 0.36 | 0.36 | 100 | 1014.0 |
| 20260503175022 | 10 | 344 | 1.6 | 4.8 | 0.00 | 0.36 | 0.36 | 100 | 1014.0 |
| 20260503174523 | 10 | 4 | 3.2 | 11.3 | 0.00 | 0.36 | 0.36 | 100 | 1014.0 |
| 20260503174023 | 10 | 352 | 4.8 | 11.3 | 0.00 | 0.36 | 0.36 | 100 | 1014.0 |
| 20260503173522 | 10 | 322 | 4.8 | 11.3 | 0.00 | 0.36 | 0.36 | 100 | 1014.0 |
| 20260503173023 | 10 | 264 | 3.2 | 6.4 | 0.00 | 0.36 | 0.36 | 100 | 1014.0 |
| 20260503172522 | 10 | 58 | 4.8 | 8.0 | 0.00 | 0.36 | 0.36 | 100 | 1014.0 |
| 20260503172022 | 10 | 30 | 8.0 | 11.3 | 0.00 | 0.36 | 0.36 | 100 | 1014.0 |
| 20260503171524 | 10 | 25 | 9.7 | 19.3 | 0.00 | 0.33 | 0.33 | 100 | 1014.0 |
| 20260503171023 | 10 | 16 | 9.7 | 16.1 | 0.00 | 0.30 | 0.30 | 100 | 1014.0 |
| 20260503170523 | 10 | 4 | 8.0 | 16.1 | 0.00 | 0.28 | 0.28 | 100 | 1014.0 |
| 20260503150522 | 11 | 175 | 3.2 | 4.8 | 0.00 | 0.13 | 0.13 | 100 | 1014.0 |
| 20260503131022 | 13 | 272 | 4.8 | 11.3 | 0.00 | 2.54 | 2.54 | 100 | 1015.0 |
| 20260503130522 | 13 | 291 | 8.0 | 17.7 | 0.00 | 2.54 | 2.54 | 100 | 1015.0 |
| 20260503130138 | 13 | 288 | 8.0 | 17.7 | 0.00 | 2.51 | 2.51 | 100 | 1015.0 |
| 20260503110523 | 14 | 10 | 6.4 | 11.3 | 0.00 | 1.68 | 1.68 | 100 | 1015.0 |
| 20260503081522 | 15 | 311 | 25.7 | 56.3 | 0.00 | 1.04 | 1.04 | 100 | 1015.0 |
| 20260503081137 | 15 | 314 | 30.6 | 69.2 | 0.00 | 1.02 | 1.02 | 100 | 1015.0 |
| 20260503080523 | 15 | 332 | 24.1 | 75.6 | 0.00 | 0.94 | 0.94 | 100 | 1014.0 |
| 20260503072522 | 18 | 350 | 16.1 | 30.6 | 0.00 | 0.28 | 0.28 | 100 | 1013.0 |
| 20260503072022 | 18 | 350 | 16.1 | 35.4 | 0.00 | 0.28 | 0.28 | 100 | 1013.0 |
| 20260503071523 | 17 | 348 | 14.5 | 30.6 | 0.00 | 0.28 | 0.28 | 100 | 1013.0 |
| 20260503071024 | 17 | 350 | 14.5 | 27.4 | 0.00 | 0.28 | 0.28 | 100 | 1013.0 |
| 20260503070523 | 17 | 351 | 12.9 | 25.7 | 0.00 | 0.28 | 0.28 | 100 | 1013.0 |